Weather History for PAAQ - February, 2013

Change the Weather History Date:

Thursday, February 7, 2013

  Actual Average Record
Temperature  
Mean Temperature 26 °F -  
Max Temperature 37 °F 29 °F 45 °F (1968)
Min Temperature 16 °F 11 °F -23 °F (1990)
Degree Days  
Heating Degree Days 38    
Moisture  
Dew Point 16 °F    
Average Humidity 70    
Maximum Humidity 92    
Minimum Humidity 52    
Precipitation  
Precipitation 0.00 in - - ()
Sea Level Pressure  
Sea Level Pressure 29.44 in    
Wind  
Wind Speed 7 mph (North)    
Max Wind Speed 20 mph    
Max Gust Speed 29 mph    
Visibility 10 miles    
Events Snow    
Averages and records for this station are not official NWS values.
T = Trace of Precipitation, MM = Missing Value Source: NWS Daily Summary

Daily Weather History Graph

Daily Weather History Graph

Search for Another Location

Airport or City:

Trip Planner

Search our weather history database for the weather conditions in past years. The results will help you decide how hot, cold, wet, or windy it might be!

Date:

Astronomy

Feb. 07, 2013 Rise Set
Actual Time 9:01 AM AKST 5:20 PM AKST
Civil Twilight 8:13 AM AKST 6:08 PM AKST
Nautical Twilight 7:21 AM AKST 7:01 PM AKST
Astronomical Twilight 6:30 AM AKST 7:51 PM AKST
Moon 7:19 AM AKST (2/7) 2:29 PM AKST (2/7)
Length of Visible Light 9h 55m
Length of Day
8h 18m
Waning Crescent, 8% of the Moon is Illuminated
Feb 7
Waning Crescent
Feb 9
New
Feb 17
First Quarter
Feb 25
Full
Mar 4
Last Quarter

Hourly Weather History & Observations

Time (AKST) Temp. Windchill Dew Point Humidity Pressure Visibility Wind Dir Wind Speed Gust Speed Precip Events Conditions
12:08 AM 24.8 °F 20.5 °F 21.2 °F 86% 29.61 in 10.0 mi North 3.5 mph - N/A   Overcast
12:22 AM 24.8 °F 20.5 °F 21.2 °F 86% 29.61 in 10.0 mi North 3.5 mph - N/A   Overcast
12:42 AM 24.8 °F 19.1 °F 19.4 °F 80% 29.59 in 10.0 mi North 4.6 mph - N/A   Overcast
12:53 AM 23.0 °F 18.4 °F 19.0 °F 85% 29.61 in 10.0 mi NNE 3.5 mph - N/A   Mostly Cloudy
1:53 AM 21.9 °F 13.4 °F 16.0 °F 78% 29.59 in 10.0 mi NNW 6.9 mph - N/A   Clear
2:53 AM 21.0 °F 11.4 °F 12.9 °F 71% 29.57 in 10.0 mi NNW 8.1 mph - N/A   Clear
3:53 AM 21.0 °F 10.6 °F 12.9 °F 71% 29.54 in 10.0 mi NNW 9.2 mph - N/A   Clear
4:53 AM 21.9 °F 11.7 °F 12.9 °F 68% 29.53 in 10.0 mi North 9.2 mph - N/A   Clear
5:53 AM 17.1 °F - 12.0 °F 81% 29.52 in 10.0 mi Calm Calm - N/A   Clear
6:53 AM 16.0 °F - 12.9 °F 88% 29.52 in 10.0 mi Calm Calm - N/A   Scattered Clouds
7:53 AM 19.0 °F - 16.0 °F 88% 29.51 in 10.0 mi Calm Calm - N/A   Overcast
8:53 AM 19.0 °F 12.3 °F 17.1 °F 92% 29.49 in 10.0 mi SE 4.6 mph - N/A   Overcast
9:53 AM 26.1 °F 16.8 °F 14.0 °F 60% 29.46 in 10.0 mi North 9.2 mph - N/A   Overcast
10:53 AM 27.0 °F 18.7 °F 16.0 °F 63% 29.42 in 10.0 mi North 8.1 mph - N/A   Overcast
11:53 AM 28.9 °F 20.4 °F 16.0 °F 58% 29.39 in 10.0 mi North 9.2 mph - N/A   Overcast
12:53 PM 30.9 °F 20.7 °F 17.1 °F 57% 29.35 in 10.0 mi NNE 13.8 mph 20.7 mph N/A   Overcast
1:53 PM 33.1 °F 25.5 °F 17.1 °F 52% 29.33 in 10.0 mi North 9.2 mph - N/A   Overcast
2:38 PM 37.4 °F 28.5 °F 24.8 °F 60% 29.32 in 10.0 mi ESE 15.0 mph 27.6 mph N/A   Overcast
2:53 PM 32.0 °F 24.8 °F 17.1 °F 54% 29.33 in 10.0 mi ENE 8.1 mph - N/A   Overcast
3:53 PM 27.0 °F 17.3 °F 18.0 °F 69% 29.32 in 10.0 mi ENE 10.4 mph 17.3 mph N/A   Overcast
4:53 PM 26.1 °F 15.6 °F 19.0 °F 75% 29.33 in 10.0 mi North 11.5 mph 18.4 mph N/A   Overcast
5:53 PM 26.1 °F 19.4 °F 19.9 °F 78% 29.34 in 7.0 mi Variable 5.8 mph - 0.00 in Snow Light Snow
6:53 PM 26.1 °F 15.6 °F 18.0 °F 71% 29.31 in 10.0 mi NNW 11.5 mph 28.8 mph 0.00 in   Mostly Cloudy
7:53 PM 27.0 °F 13.5 °F 17.1 °F 66% 29.31 in 10.0 mi North 19.6 mph 27.6 mph N/A   Mostly Cloudy
8:53 PM 26.1 °F 14.0 °F 14.0 °F 60% 29.31 in 10.0 mi North 15.0 mph 18.4 mph N/A   Overcast
9:53 PM 25.0 °F 13.1 °F 10.0 °F 53% 29.33 in 10.0 mi North 13.8 mph 20.7 mph N/A   Overcast
10:53 PM 25.0 °F 12.6 °F 12.0 °F 58% 29.34 in 10.0 mi North 15.0 mph - N/A   Overcast
11:53 PM 24.1 °F 13.1 °F 12.0 °F 60% 29.37 in 10.0 mi North 11.5 mph - N/A   Overcast